Regional Weather Roundup
Issued by NWS

Home | Current Version | Previous Version | Text Only | Print | Product List | Glossary Off
Versions: 1 2 3 4 5 6 7 8 9 10 11 12 13 14 15 16 17 18 19 20 21 22 23 24 25 26 27 28 29 30 31 32 33 34 35 36 37 38 39 40 41 42 43 44 45 46 47 48 49 50

000
ASUS43 KFSD 280002
RWRSD

WEATHER ROUNDUP FOR SOUTH DAKOTA
NATIONAL WEATHER SERVICE SIOUX FALLS SD
700 PM CDT MON APR 27 2015

NOTE: "FAIR" INDICATES FEW OR NO CLOUDS BELOW 12,000 FEET WITH NO
SIGNIFICANT WEATHER AND/OR OBSTRUCTIONS TO VISIBILITY.


SDZ001>005-009-010-012>017-280100-
NORTHWEST AND NORTH CENTRAL SOUTH DAKOTA

CITY           SKY/WX    TMP DP  RH WIND       PRES   REMARKS
BUFFALO          N/A     47  35  63 NW9       30.26R
FAITH            N/A     48  39  71 N13       30.29S
MOBRIDGE       LGT RAIN  52  45  77 N15       30.25R
$$

SDZ012>016-024>037-041>051-057-063-072>074-280100-
SOUTHWEST AND SOUTH CENTRAL SOUTH DAKOTA

CITY           SKY/WX    TMP DP  RH WIND       PRES   REMARKS
RAPID CTY ARPT LGT RAIN  47  41  80 N12       30.30S
PIERRE         LGT RAIN  58  44  60 NW21      30.23R
CUSTER         CLOUDY    42  38  85 W6        30.29R
ELLSWORTH AFB  CLOUDY    47  41  79 N10       30.30S
PHILIP         MOSUNNY   56  41  57 NW15      30.27R
PINE RIDGE     MOSUNNY   53  39  59 N10       30.27R
WINNER         FAIR      67  39  35 N21       30.18R
$$

SDZ004>011-016>023-039-040-280100-
NORTHEAST SOUTH DAKOTA

CITY           SKY/WX    TMP DP  RH WIND       PRES   REMARKS
ABERDEEN       PTSUNNY   68  41  37 NW22      30.15S
WATERTOWN      MOSUNNY   67  23  19 NW5       30.16F
BROOKINGS      SUNNY     66  25  20 N9        30.16S
SISSETON         N/A     71  20  14 NE5       30.14F
$$

SDZ017-020-022-023-036>040-048>070-280100-
SOUTHEAST SOUTH DAKOTA

CITY           SKY/WX    TMP DP  RH WIND       PRES   REMARKS
SIOUX FALLS    PTSUNNY   66  28  24 N7        30.15S
HURON          SUNNY     70  19  14 E7        30.15S
MITCHELL       MOSUNNY   70  23  17 NE3       30.16S
YANKTON        MOSUNNY   70  27  19 N3        30.14S
$$

ABBREVIATIONS USED IN REMARKS
   TC - TEMPERATURE IN CELSIUS
  WCI - WIND CHILL INDEX
   HX - HEAT INDEX
  VSB - VISIBILITY




USA.gov is the U.S. government's official web portal to all federal, state and local government web resources and services.